Location: ??????
(41.3164°N, 22.6615°E)
Time: 02:38:57
(UTC+00:00)

CANX-2 - Pass Details

Date: 18 August 2022
Orbit: 591 x 608 km, 97.7° (Epoch: 03 October)

Event Time Altitude Azimuth Distance (km) Brightness Sun altitude
Rises 01:10:15 0° 30° (NNE) 2,857 ? -24.6°
Reaches altitude 10° 01:13:07 10° 52° (NE) 1,952 ? -24.2°
Maximum altitude 01:15:52 17° 92° (E) 1,553 ? -23.9°
Drops below altitude 10° 01:18:38 10° 133° (SE) 1,949 ? -23.5°
Enters shadow 01:19:21 - 140° (SE) 2,150 ? -23.4°
